This is the latest recevied weather packets stored in our database for station/object dl1wer-13. If no packets are shown the sender has not sent any weather packets the latest 10 day(s).
| Time | Temp. | Humidity | Pressure | Rain* | Wind** | Luminosity | Snow |
|---|---|---|---|---|---|---|---|
| 1777480217 | 17.22° C | 33% | 1046 hPa | 0 mm | - | - | - |
| 1777479617 | 17.22° C | 32% | 1046 hPa | 0 mm | - | - | - |
| 1777479016 | 17.78° C | 30% | 1045.8 hPa | 0 mm | - | - | - |
| 1777478416 | 17.78° C | 30% | 1045.7 hPa | 0 mm | - | - | - |
| 1777477817 | 17.78° C | 28% | 1045.8 hPa | 0 mm | - | - | - |
| 1777477217 | 17.78° C | 28% | 1045.8 hPa | 0 mm | - | - | - |
| 1777476616 | 17.78° C | 27% | 1046.1 hPa | 0 mm | - | - | - |
| 1777476017 | 17.78° C | 27% | 1045.9 hPa | 0 mm | - | - | - |
| 1777475416 | 17.78° C | 30% | 1045.9 hPa | 0 mm | - | - | - |
| 1777474817 | 17.78° C | 27% | 1045.7 hPa | 0 mm | - | - | - |
| 1777474216 | 17.78° C | 30% | 1045.9 hPa | 0 mm | - | - | - |
| 1777473616 | 17.78° C | 30% | 1045.9 hPa | 0 mm | - | - | - |
| 1777473017 | 17.78° C | 30% | 1045.8 hPa | 0 mm | - | - | - |
| 1777472418 | 17.78° C | 30% | 1045.8 hPa | 0 mm | - | - | - |
| 1777471816 | 17.78° C | 28% | 1045.5 hPa | 0 mm | - | - | - |
| 1777471217 | 17.78° C | 30% | 1045.8 hPa | 0 mm | - | - | - |
| 1777470618 | 17.22° C | 32% | 1045.8 hPa | 0 mm | - | - | - |
| 1777470017 | 17.78° C | 30% | 1045.8 hPa | 0 mm | - | - | - |
| 1777469417 | 17.78° C | 30% | 1046 hPa | 0 mm | - | - | - |
| 1777468816 | 17.78° C | 31% | 1045.8 hPa | 0 mm | - | - | - |
| 1777468217 | 17.22° C | 33% | 1046 hPa | 0 mm | - | - | - |
| 1777467617 | 17.22° C | 33% | 1045.7 hPa | 0 mm | - | - | - |
| 1777467016 | 17.22° C | 33% | 1045.9 hPa | 0 mm | - | - | - |
| 1777466416 | 16.67° C | 33% | 1046.1 hPa | 0 mm | - | - | - |
| 1777465818 | 16.67° C | 32% | 1045.7 hPa | 0 mm | - | - | - |
* Rain latest hour (hover to see other rain measurements)
** Current wind speed in m/s (hover to see current wind gust speed)